Darlington, SC

11:44 AM EDT on August 17, 2017 (GMT -0400)
Darlington County Jetport

Weather History for KUDG - December, 2012

Change the Weather History Date:

Wednesday, December 26, 2012

  Actual Average (KFLO) Record (KFLO)
Temperature  
Mean Temperature 56 °F -  
Max Temperature 69 °F 53 °F 76 °F (1973)
Min Temperature 41 °F 34 °F 8 °F (1983)
Degree Days  
Heating Degree Days 10    
Growing Degree Days 6 (Base 50)    
Moisture  
Dew Point 44 °F    
Average Humidity 71    
Maximum Humidity 94    
Minimum Humidity 45    
Precipitation  
Precipitation 0.42 in - - ()
Sea Level Pressure  
Sea Level Pressure 29.68 in    
Wind  
Wind Speed 13 mph (South)    
Max Wind Speed 24 mph    
Max Gust Speed 34 mph    
Visibility 9 miles    
Events      
Averages and records for this station are not official NWS values.
T = Trace of Precipitation, MM = Missing Value Source: NWS Daily Summary

Daily Weather History Graph

Daily Weather History Graph

Search for Another Location

Airport or City:

Trip Planner

Search our weather history database for the weather conditions in past years. The results will help you decide how hot, cold, wet, or windy it might be!

Date:

Astronomy

Dec. 26, 2012 Rise Set
Actual Time 7:24 AM EST 5:16 PM EST
Civil Twilight 6:56 AM EST 5:44 PM EST
Nautical Twilight 6:25 AM EST 6:15 PM EST
Astronomical Twilight 5:54 AM EST 6:46 PM EST
Moon 4:07 PM EST (12/26) 5:47 AM EST (12/26)
Length of Visible Light 10h 47m
Length of Day
9h 51m
Waxing Gibbous, 97% of the Moon is Illuminated
Dec 26
Waxing Gibbous
Dec 28
Full
Jan 4
Last Quarter
Jan 11
New
Jan 18
First Quarter

Hourly Weather History & Observations

Time (EST) Temp. Windchill Dew Point Humidity Pressure Visibility Wind Dir Wind Speed Gust Speed Precip Events Conditions
12:15 AM 53.6 °F - 50.0 °F 88% 29.97 in 10.0 mi East 8.1 mph - N/A   Overcast
12:35 AM 53.6 °F - 50.0 °F 88% 29.98 in 10.0 mi East 8.1 mph - N/A   Overcast
12:55 AM 53.6 °F - 50.0 °F 88% 29.97 in 9.0 mi ENE 9.2 mph - N/A   Overcast
1:15 AM 53.6 °F - 48.2 °F 82% 29.97 in 10.0 mi East 10.4 mph - N/A   Overcast
1:35 AM 53.6 °F - 48.2 °F 82% 29.96 in 10.0 mi ENE 11.5 mph - N/A   Overcast
1:55 AM 53.6 °F - 48.2 °F 82% 29.94 in 10.0 mi ENE 11.5 mph - N/A   Overcast
2:15 AM 51.8 °F - 48.2 °F 88% 29.93 in 10.0 mi ENE 12.7 mph - N/A   Overcast
2:35 AM 51.8 °F - 48.2 °F 88% 29.93 in 10.0 mi ENE 10.4 mph - N/A   Overcast
2:55 AM 51.8 °F - 48.2 °F 88% 29.92 in 10.0 mi ENE 10.4 mph - N/A   Overcast
3:15 AM 51.8 °F - 46.4 °F 82% 29.91 in 10.0 mi East 15.0 mph - N/A   Overcast
3:35 AM 51.8 °F - 46.4 °F 82% 29.92 in 10.0 mi South 9.2 mph - N/A   Overcast
3:55 AM 50.0 °F - 44.6 °F 82% 29.91 in 10.0 mi WNW 9.2 mph 20.7 mph N/A   Overcast
4:15 AM 50.0 °F - 44.6 °F 82% 29.88 in 5.0 mi ENE 11.5 mph 17.3 mph 0.01 in   Overcast
4:35 AM 48.2 °F - 46.4 °F 93% 29.87 in 10.0 mi ENE 10.4 mph - 0.01 in   Overcast
4:55 AM 50.0 °F - 46.4 °F 87% 29.83 in 7.0 mi ENE 13.8 mph 18.4 mph 0.01 in   Overcast
5:15 AM 50.0 °F - 46.4 °F 87% 29.82 in 10.0 mi East 11.5 mph - 0.01 in   Overcast
5:35 AM 48.2 °F - 46.4 °F 93% 29.81 in 4.0 mi East 9.2 mph - 0.07 in   Overcast
5:55 AM 48.2 °F - 46.4 °F 93% 29.82 in 8.0 mi East 13.8 mph 19.6 mph 0.08 in   Overcast
6:15 AM 48.2 °F - 46.4 °F 93% 29.79 in 10.0 mi East 15.0 mph 21.9 mph N/A   Overcast
6:35 AM 48.2 °F - 46.4 °F 93% 29.77 in 10.0 mi East 16.1 mph 20.7 mph N/A   Overcast
6:55 AM 51.8 °F - 46.4 °F 82% 29.75 in 10.0 mi East 11.5 mph 23.0 mph N/A   Overcast
7:15 AM 51.8 °F - 46.4 °F 82% 29.75 in 10.0 mi ENE 13.8 mph 18.4 mph N/A   Overcast
7:35 AM 48.2 °F - 46.4 °F 93% 29.73 in 5.0 mi East 13.8 mph 19.6 mph 0.01 in   Overcast
7:55 AM 50.0 °F - 46.4 °F 87% 29.72 in 7.0 mi East 4.6 mph - 0.03 in   Overcast
8:15 AM 50.0 °F - 46.4 °F 87% 29.69 in 10.0 mi East 12.7 mph - N/A   Overcast
8:35 AM 51.8 °F - 46.4 °F 82% 29.70 in 9.0 mi East 10.4 mph - 0.01 in   Overcast
8:55 AM 51.8 °F - 48.2 °F 88% 29.68 in 3.0 mi ENE 6.9 mph - 0.04 in   Overcast
9:15 AM 51.8 °F - 48.2 °F 88% 29.67 in 3.0 mi NE 5.8 mph - 0.02 in   Overcast
9:35 AM 51.8 °F - 48.2 °F 88% 29.64 in 4.0 mi East 18.4 mph 23.0 mph 0.09 in   Overcast
9:55 AM 51.8 °F - 48.2 °F 88% 29.63 in 8.0 mi East 10.4 mph - 0.11 in   Overcast
10:15 AM 51.8 °F - 50.0 °F 94% 29.61 in 7.0 mi ESE 10.4 mph - 0.02 in   Overcast
10:35 AM 55.4 °F - 53.6 °F 94% 29.60 in 10.0 mi ESE 10.4 mph - 0.08 in   Mostly Cloudy
10:55 AM 57.2 °F - 53.6 °F 88% 29.57 in 8.0 mi SE 15.0 mph - 0.11 in   Overcast
11:15 AM 59.0 °F - 55.4 °F 88% 29.56 in 5.0 mi SSE 11.5 mph - 0.04 in   Overcast
11:35 AM 60.8 °F - 57.2 °F 88% 29.54 in 10.0 mi South 13.8 mph 18.4 mph 0.04 in   Overcast
11:55 AM 64.4 °F - 60.8 °F 88% 29.52 in 10.0 mi SSW 13.8 mph 21.9 mph 0.04 in   Mostly Cloudy
12:15 PM 68.0 °F - 62.6 °F 83% 29.49 in 10.0 mi South 18.4 mph 23.0 mph N/A   Partly Cloudy
12:35 PM 68.0 °F - 60.8 °F 78% 29.47 in 10.0 mi SSW 13.8 mph 23.0 mph N/A   Partly Cloudy
12:55 PM 69.8 °F - 57.2 °F 64% 29.47 in 10.0 mi SSW 20.7 mph 29.9 mph N/A   Mostly Cloudy
1:15 PM 69.8 °F - 51.8 °F 53% 29.46 in 10.0 mi SSW 18.4 mph 34.5 mph N/A   Scattered Clouds
1:35 PM 69.8 °F - 48.2 °F 46% 29.46 in 10.0 mi SW 20.7 mph 34.5 mph N/A   Partly Cloudy
1:55 PM 66.2 °F - 46.4 °F 49% 29.47 in 10.0 mi SW 18.4 mph 33.4 mph N/A   Partly Cloudy
2:15 PM 66.2 °F - 44.6 °F 46% 29.47 in 10.0 mi SW 19.6 mph 31.1 mph N/A   Clear
2:35 PM 66.2 °F - 44.6 °F 46% 29.47 in 10.0 mi WSW 19.6 mph 28.8 mph N/A   Clear
2:55 PM 66.2 °F - 44.6 °F 46% 29.47 in 10.0 mi SW 17.3 mph 31.1 mph N/A   Partly Cloudy
3:15 PM 64.4 °F - 42.8 °F 45% 29.47 in 10.0 mi SW 24.2 mph 32.2 mph N/A   Clear
3:35 PM 64.4 °F - 42.8 °F 45% 29.48 in 10.0 mi SW 18.4 mph 28.8 mph N/A   Clear
3:55 PM 62.6 °F - 42.8 °F 48% 29.48 in 10.0 mi SW 19.6 mph 28.8 mph N/A   Partly Cloudy
4:15 PM 62.6 °F - 41.0 °F 45% 29.49 in 10.0 mi SW 21.9 mph 31.1 mph N/A   Mostly Cloudy
4:35 PM 60.8 °F - 41.0 °F 48% 29.50 in 10.0 mi WSW 19.6 mph 26.5 mph N/A   Overcast
4:55 PM 59.0 °F - 39.2 °F 48% 29.50 in 10.0 mi WSW 16.1 mph 21.9 mph N/A   Mostly Cloudy
5:15 PM 57.2 °F - 39.2 °F 51% 29.52 in 10.0 mi WSW 19.6 mph 26.5 mph N/A   Mostly Cloudy
5:35 PM 55.4 °F - 39.2 °F 54% 29.55 in 10.0 mi West 20.7 mph 33.4 mph N/A   Overcast
5:55 PM 53.6 °F - 37.4 °F 54% 29.56 in 10.0 mi WSW 18.4 mph 28.8 mph N/A   Overcast
6:15 PM 51.8 °F - 37.4 °F 58% 29.58 in 10.0 mi WSW 17.3 mph 26.5 mph N/A   Scattered Clouds
6:35 PM 50.0 °F - 33.8 °F 54% 29.60 in 10.0 mi WSW 15.0 mph 24.2 mph N/A   Clear
6:55 PM 50.0 °F - 33.8 °F 54% 29.62 in 10.0 mi WSW 20.7 mph 29.9 mph N/A   Mostly Cloudy
7:15 PM 48.2 °F - 33.8 °F 58% 29.63 in 10.0 mi WSW 16.1 mph 25.3 mph N/A   Overcast
7:35 PM 48.2 °F - 33.8 °F 58% 29.64 in 10.0 mi WSW 13.8 mph 24.2 mph N/A   Overcast
7:55 PM 46.4 °F 39.0 °F 32.0 °F 57% 29.65 in 10.0 mi WSW 19.6 mph 28.8 mph N/A   Overcast
8:15 PM 46.4 °F 40.4 °F 32.0 °F 57% 29.66 in 10.0 mi WSW 13.8 mph 20.7 mph N/A   Overcast
8:35 PM 46.4 °F 41.1 °F 32.0 °F 57% 29.67 in 10.0 mi WSW 11.5 mph 19.6 mph N/A   Overcast
8:55 PM 46.4 °F 39.2 °F 30.2 °F 53% 29.68 in 10.0 mi West 18.4 mph 25.3 mph N/A   Overcast
9:15 PM 46.4 °F 40.7 °F 30.2 °F 53% 29.69 in 10.0 mi WSW 12.7 mph 21.9 mph N/A   Overcast
9:35 PM 44.6 °F 37.8 °F 30.2 °F 57% 29.70 in 10.0 mi WSW 15.0 mph 20.7 mph N/A   Overcast
9:55 PM 44.6 °F 37.4 °F 30.2 °F 57% 29.71 in 10.0 mi WSW 16.1 mph 20.7 mph N/A   Overcast
10:15 PM 44.6 °F 37.2 °F 30.2 °F 57% 29.72 in 10.0 mi WSW 17.3 mph 25.3 mph N/A   Overcast
10:35 PM 44.6 °F 37.4 °F 30.2 °F 57% 29.73 in 10.0 mi WSW 16.1 mph 21.9 mph N/A   Overcast
10:55 PM 42.8 °F 35.4 °F 30.2 °F 61% 29.74 in 10.0 mi WSW 15.0 mph 25.3 mph N/A   Mostly Cloudy
11:15 PM 42.8 °F 35.4 °F 30.2 °F 61% 29.74 in 10.0 mi WSW 15.0 mph - N/A   Partly Cloudy
11:35 PM 42.8 °F 36.6 °F 30.2 °F 61% 29.75 in 10.0 mi WSW 11.5 mph 20.7 mph N/A   Clear
11:55 PM 41.0 °F 33.9 °F 30.2 °F 65% 29.75 in 10.0 mi WSW 12.7 mph - N/A   Clear